Marion, OH

11:46 AM EST on January 18, 2018 (GMT -0500)
Marion Municipal

Weather History for KMNN - May, 2013

Change the Weather History Date:

Tuesday, May 21, 2013

  Actual Average (KDLZ) Record (KDLZ)
Temperature  
Mean Temperature 77 °F -  
Max Temperature 86 °F 75 °F 91 °F (1941)
Min Temperature 70 °F 51 °F 32 °F (1954)
Cooling Degree Days 12    
Growing Degree Days 27 (Base 50)    
Moisture  
Dew Point 62 °F    
Average Humidity 63    
Maximum Humidity 87    
Minimum Humidity 37    
Precipitation  
Precipitation 0.00 in - - ()
Sea Level Pressure  
Sea Level Pressure 29.85 in    
Wind  
Wind Speed 11 mph (SSW)    
Max Wind Speed 20 mph    
Max Gust Speed 28 mph    
Visibility 10 miles    
Events      
Averages and records for this station are not official NWS values.
T = Trace of Precipitation, MM = Missing Value Source: NWS Daily Summary

Daily Weather History Graph

Daily Weather History Graph

Search for Another Location

Airport or City:

Trip Planner

Search our weather history database for the weather conditions in past years. The results will help you decide how hot, cold, wet, or windy it might be!

Date:

Astronomy

May. 21, 2013 Rise Set
Actual Time 6:10 AM EDT 8:48 PM EDT
Civil Twilight 5:38 AM EDT 9:19 PM EDT
Nautical Twilight 4:58 AM EDT 9:59 PM EDT
Astronomical Twilight 4:14 AM EDT 10:44 PM EDT
Moon 4:59 PM EDT (5/21) 3:38 AM EDT (5/21)
Length of Visible Light 15h 41m
Length of Day
14h 38m
Waxing Gibbous, 84% of the Moon is Illuminated
May 21
Waxing Gibbous
May 25
Full
May 31
Last Quarter
Jun 8
New
Jun 16
First Quarter

Hourly Weather History & Observations

Time (EDT) Temp. Heat Index Dew Point Humidity Pressure Visibility Wind Dir Wind Speed Gust Speed Precip Events Conditions
12:53 AM 72.0 °F - 64.9 °F 78% 29.90 in 10.0 mi South 8.1 mph - N/A   Clear
1:53 AM 72.0 °F - 66.0 °F 81% 29.89 in 10.0 mi SSW 9.2 mph - N/A   Clear
2:53 AM 72.0 °F - 66.0 °F 81% 29.88 in 10.0 mi SSW 10.4 mph - N/A   Clear
3:53 AM 71.1 °F - 66.0 °F 84% 29.88 in 9.0 mi SSW 9.2 mph - N/A   Clear
4:53 AM 70.0 °F - 64.9 °F 84% 29.87 in 9.0 mi South 11.5 mph - N/A   Clear
5:53 AM 70.0 °F - 64.9 °F 84% 29.88 in 9.0 mi SW 10.4 mph - N/A   Clear
6:53 AM 70.0 °F - 64.9 °F 84% 29.88 in 7.0 mi SSW 10.4 mph - N/A   Clear
7:53 AM 70.0 °F - 66.0 °F 87% 29.87 in 7.0 mi South 10.4 mph - N/A   Clear
8:53 AM 71.1 °F - 66.0 °F 84% 29.88 in 7.0 mi SSW 12.7 mph - N/A   Clear
9:53 AM 75.0 °F - 66.0 °F 73% 29.91 in 9.0 mi SSW 16.1 mph - N/A   Clear
10:53 AM 79.0 °F - 61.0 °F 54% 29.90 in 10.0 mi WSW 17.3 mph 25.3 mph N/A   Clear
11:53 AM 80.1 °F 80.9 °F 60.1 °F 50% 29.87 in 10.0 mi SSW 11.5 mph 20.7 mph N/A   Clear
12:53 PM 82.9 °F 83.2 °F 60.1 °F 46% 29.85 in 10.0 mi SSW 16.1 mph 21.9 mph N/A   Clear
1:53 PM 84.0 °F 83.8 °F 59.0 °F 43% 29.83 in 10.0 mi SW 18.4 mph 27.6 mph N/A   Clear
2:53 PM 84.9 °F 83.7 °F 55.9 °F 37% 29.82 in 10.0 mi WSW 15.0 mph 27.6 mph N/A   Clear
3:53 PM 84.9 °F 83.9 °F 57.0 °F 38% 29.82 in 10.0 mi SW 15.0 mph 24.2 mph N/A   Clear
4:53 PM 84.9 °F 83.7 °F 55.9 °F 37% 29.80 in 10.0 mi SW 19.6 mph 26.5 mph N/A   Scattered Clouds
5:53 PM 82.9 °F 82.6 °F 57.9 °F 42% 29.80 in 10.0 mi SW 15.0 mph 23.0 mph N/A   Partly Cloudy
6:53 PM 81.0 °F 81.6 °F 60.1 °F 49% 29.80 in 10.0 mi SSW 12.7 mph - N/A   Clear
7:53 PM 81.0 °F 81.3 °F 59.0 °F 47% 29.79 in 10.0 mi SW 15.0 mph 24.2 mph N/A   Clear
8:53 PM 77.0 °F - 59.0 °F 54% 29.80 in 10.0 mi SW 11.5 mph - N/A   Clear
9:53 PM 73.9 °F - 57.9 °F 57% 29.81 in 10.0 mi SSW 6.9 mph - N/A   Clear
10:53 PM 70.0 °F - 57.9 °F 65% 29.81 in 10.0 mi South 5.8 mph - N/A   Clear
11:53 PM 73.9 °F - 60.1 °F 62% 29.81 in 10.0 mi SSW 9.2 mph - N/A   Partly Cloudy